• In Uzbekistan
  • List of Countries
  • For 7 days
  • Water Temperature
  • Satellite Maps
  • Weather Map
  • Weather Widgets
  • user-avatar
    Login

    Hourly Weather Novomykhailivka

    Today, 18 December, Monday

    Time Temperature Precipitation Wind Pressure Humidity
    00:00 +8°C° 1 mm 6 mps 748 mmHg 89%
    01:00 +8°C° 1 mm 6 mps 748 mmHg 89%
    02:00 +7°C° 0 mm 6 mps 747 mmHg 87%
    03:00 +7°C° 1 mm 6 mps 747 mmHg 88%
    04:00 +7°C° 1 mm 6 mps 747 mmHg 88%
    05:00 +7°C° 1 mm 6 mps 746 mmHg 89%
    06:00 +7°C° 0.8 mm 6 mps 746 mmHg 90%
    07:00 +7°C° 0.8 mm 6 mps 745 mmHg 90%
    08:00 +6°C° 0 mm 8 mps 745 mmHg 90%
    09:00 +7°C° 0.1 mm 8 mps 745 mmHg 89%
    10:00 +7°C° 0.1 mm 8 mps 745 mmHg 89%
    11:00 +9°C° 0.1 mm 8 mps 745 mmHg 88%
    12:00 +7°C° 0 mm 8 mps 746 mmHg 85%
    13:00 +6°C° 0 mm 8 mps 746 mmHg 82%
    14:00 +5°C° 0 mm 9 mps 746 mmHg 78%
    15:00 +5°C° 0 mm 8 mps 747 mmHg 77%
    16:00 +4°C° 0 mm 8 mps 748 mmHg 76%
    17:00 +2°C° 0 mm 8 mps 749 mmHg 74%
    18:00 +2°C° 0 mm 7 mps 749 mmHg 74%
    19:00 +2°C° 0 mm 7 mps 750 mmHg 74%
    20:00 +2°C° 0 mm 7 mps 750 mmHg 74%
    21:00 +1°C° 0 mm 6 mps 751 mmHg 74%
    22:00 +1°C° 0 mm 6 mps 751 mmHg 74%
    23:00 -1°C° 0 mm 6 mps 752 mmHg 74%

    Tomorrow, 19 December, Tuesday

    Time Temperature Precipitation Wind Pressure Humidity
    00:00 -1°C° 0 mm 6 mps 752 mmHg 74%
    01:00 -1°C° 0 mm 6 mps 752 mmHg 73%
    02:00 -2°C° 0 mm 6 mps 752 mmHg 73%
    03:00 -1°C° 0 mm 5 mps 753 mmHg 74%
    04:00 -1°C° 0 mm 5 mps 753 mmHg 75%
    05:00 -2°C° 0 mm 4 mps 753 mmHg 76%
    06:00 -2°C° 0 mm 4 mps 753 mmHg 77%
    07:00 -2°C° 0 mm 4 mps 754 mmHg 77%
    08:00 -1°C° 0 mm 3 mps 754 mmHg 78%
    09:00 -2°C° 0 mm 4 mps 755 mmHg 75%
    10:00 -1°C° 0 mm 4 mps 755 mmHg 72%
    11:00 0°C° 0 mm 4 mps 755 mmHg 68%
    12:00 0°C° 0 mm 4 mps 755 mmHg 68%
    13:00 0°C° 0 mm 4 mps 755 mmHg 67%
    14:00 0°C° 0 mm 4 mps 755 mmHg 67%
    15:00 0°C° 0 mm 4 mps 756 mmHg 68%
    16:00 -1°C° 0 mm 4 mps 756 mmHg 70%
    17:00 -1°C° 0 mm 4 mps 756 mmHg 71%
    18:00 -1°C° 0 mm 4 mps 756 mmHg 72%
    19:00 -1°C° 0 mm 4 mps 757 mmHg 72%
    20:00 -1°C° 0 mm 4 mps 757 mmHg 73%
    21:00 -2°C° 0 mm 4 mps 757 mmHg 74%
    22:00 -2°C° 0 mm 4 mps 757 mmHg 76%
    23:00 -1°C° 0 mm 3 mps 757 mmHg 77%

    Day after tomorrow, 20 December, Wednesday

    Time Temperature Precipitation Wind Pressure Humidity
    00:00 -2°C° 0 mm 3 mps 757 mmHg 79%
    01:00 -2°C° 0 mm 3 mps 758 mmHg 80%
    02:00 -2°C° 0 mm 3 mps 758 mmHg 81%
    03:00 -2°C° 0 mm 3 mps 758 mmHg 82%
    04:00 -2°C° 0 mm 3 mps 758 mmHg 82%
    05:00 -4°C° 0 mm 3 mps 758 mmHg 83%
    06:00 -4°C° 0 mm 3 mps 758 mmHg 82%
    07:00 -4°C° 0 mm 3 mps 759 mmHg 82%
    08:00 -4°C° 0 mm 3 mps 759 mmHg 82%
    09:00 -2°C° 0 mm 3 mps 759 mmHg 77%
    10:00 -1°C° 0 mm 3 mps 760 mmHg 73%
    11:00 -1°C° 0 mm 3 mps 760 mmHg 68%
    12:00 0°C° 0 mm 3 mps 760 mmHg 67%
    13:00 0°C° 0 mm 3 mps 760 mmHg 65%
    14:00 0°C° 0 mm 3 mps 760 mmHg 64%
    15:00 +1°C° 0 mm 2 mps 760 mmHg 66%
    16:00 -1°C° 0 mm 2 mps 760 mmHg 68%
    17:00 +1°C° 0 mm 1 mps 761 mmHg 70%
    18:00 +1°C° 0 mm 1 mps 761 mmHg 70%
    19:00 +1°C° 0 mm 1 mps 761 mmHg 70%
    20:00 +1°C° 0 mm 1 mps 762 mmHg 70%
    21:00 +1°C° 0 mm 1 mps 762 mmHg 70%
    22:00 +1°C° 0 mm 1 mps 762 mmHg 70%
    23:00 +1°C° 0 mm 1 mps 763 mmHg 70%

    21 December, Thursday

    Time Temperature Precipitation Wind Pressure Humidity
    00:00 -2°C° 0 mm 2 mps 763 mmHg 70%
    01:00 -2°C° 0 mm 2 mps 763 mmHg 69%
    02:00 -2°C° 0 mm 2 mps 763 mmHg 69%
    03:00 -2°C° 0 mm 2 mps 763 mmHg 69%
    04:00 -2°C° 0 mm 2 mps 763 mmHg 69%
    05:00 -2°C° 0 mm 2 mps 763 mmHg 69%
    06:00 -2°C° 0 mm 2 mps 763 mmHg 69%
    07:00 -2°C° 0 mm 2 mps 764 mmHg 69%
    08:00 -2°C° 0 mm 2 mps 764 mmHg 69%
    09:00 -2°C° 0 mm 2 mps 764 mmHg 65%
    10:00 -1°C° 0 mm 2 mps 764 mmHg 61%
    11:00 -1°C° 0 mm 2 mps 763 mmHg 57%
    12:00 +1°C° 0 mm 2 mps 763 mmHg 57%
    13:00 +1°C° 0 mm 2 mps 763 mmHg 56%
    14:00 0°C° 0 mm 3 mps 762 mmHg 56%
    15:00 -1°C° 0 mm 2 mps 762 mmHg 60%
    16:00 -1°C° 0 mm 2 mps 762 mmHg 64%
    17:00 0°C° 0 mm 1 mps 762 mmHg 68%
    18:00 0°C° 0 mm 1 mps 762 mmHg 69%
    19:00 0°C° 0 mm 1 mps 761 mmHg 70%
    20:00 -1°C° 0 mm 1 mps 761 mmHg 71%
    21:00 -1°C° 0 mm 1 mps 761 mmHg 71%
    22:00 -3°C° 0 mm 2 mps 761 mmHg 71%
    23:00 -3°C° 0 mm 2 mps 760 mmHg 72%

    22 December, Friday

    Time Temperature Precipitation Wind Pressure Humidity
    00:00 -3°C° 0 mm 2 mps 760 mmHg 72%
    01:00 -1°C° 0 mm 1 mps 759 mmHg 72%
    02:00 -1°C° 0 mm 1 mps 759 mmHg 72%
    03:00 -1°C° 0 mm 1 mps 758 mmHg 72%
    04:00 -1°C° 0 mm 1 mps 758 mmHg 72%
    05:00 -3°C° 0 mm 2 mps 758 mmHg 72%
    06:00 -3°C° 0 mm 2 mps 757 mmHg 72%
    07:00 -3°C° 0 mm 2 mps 757 mmHg 72%
    08:00 -3°C° 0 mm 2 mps 757 mmHg 73%
    09:00 -4°C° 0 mm 3 mps 757 mmHg 70%
    10:00 -2°C° 0 mm 3 mps 757 mmHg 66%
    11:00 -2°C° 0 mm 4 mps 756 mmHg 63%
    12:00 -2°C° 0 mm 4 mps 756 mmHg 62%
    13:00 -2°C° 0 mm 4 mps 755 mmHg 60%
    14:00 -1°C° 0 mm 5 mps 755 mmHg 59%
    15:00 -2°C° 0 mm 4 mps 754 mmHg 63%
    16:00 -2°C° 0 mm 4 mps 754 mmHg 67%
    17:00 -3°C° 0 mm 4 mps 754 mmHg 72%
    18:00 -3°C° 0 mm 4 mps 753 mmHg 73%
    19:00 -3°C° 0 mm 4 mps 753 mmHg 74%
    20:00 -2°C° 0 mm 4 mps 753 mmHg 74%
    21:00 -3°C° 0 mm 4 mps 753 mmHg 76%
    22:00 -4°C° 0 mm 5 mps 752 mmHg 77%
    23:00 -4°C° 0 mm 5 mps 752 mmHg 79%

    23 December, Saturday

    Time Temperature Precipitation Wind Pressure Humidity
    00:00 -4°C° 0 mm 5 mps 751 mmHg 79%
    01:00 -4°C° 0 mm 5 mps 751 mmHg 80%
    02:00 -4°C° 0 mm 5 mps 751 mmHg 81%
    03:00 -4°C° 0 mm 5 mps 750 mmHg 83%
    04:00 -4°C° 0 mm 5 mps 750 mmHg 85%
    05:00 -5°C° 0 mm 5 mps 750 mmHg 88%
    06:00 -4°C° 0 mm 5 mps 750 mmHg 87%
    07:00 -4°C° 0 mm 5 mps 750 mmHg 87%
    08:00 -4°C° 0 mm 5 mps 749 mmHg 86%
    09:00 -2°C° 0 mm 5 mps 750 mmHg 81%
    10:00 -1°C° 0 mm 5 mps 750 mmHg 76%
    11:00 -1°C° 0 mm 6 mps 750 mmHg 71%
    12:00 0°C° 0 mm 5 mps 749 mmHg 72%
    13:00 0°C° 0 mm 5 mps 749 mmHg 72%
    14:00 0°C° 0 mm 4 mps 748 mmHg 72%
    15:00 0°C° 0 mm 3 mps 748 mmHg 76%
    16:00 0°C° 0 mm 3 mps 749 mmHg 80%
    17:00 -1°C° 0 mm 2 mps 749 mmHg 85%
    18:00 -1°C° 0 mm 2 mps 749 mmHg 84%
    19:00 -2°C° 0 mm 3 mps 749 mmHg 84%
    20:00 -2°C° 0 mm 3 mps 749 mmHg 83%
    21:00 -2°C° 0 mm 3 mps 750 mmHg 82%
    22:00 -3°C° 0 mm 4 mps 750 mmHg 81%
    23:00 -4°C° 0 mm 4 mps 750 mmHg 80%
    Show more